Weather History for Oshkosh, WI

Change the Weather History Date:

Friday, June 15, 2012

  Actual Average Record
Temperature  
Mean Temperature 77 °F -  
Max Temperature 91 °F 77 °F 95 °F (1987)
Min Temperature 63 °F 57 °F 39 °F (1961)
Cooling Degree Days 12    
Growing Degree Days 27 (Base 50)    
Moisture  
Dew Point 51 °F    
Average Humidity 42    
Maximum Humidity 65    
Minimum Humidity 25    
Precipitation  
Precipitation 0.00 in - - ()
Sea Level Pressure  
Sea Level Pressure 29.98 in    
Wind  
Wind Speed 10 mph (South)    
Max Wind Speed 18 mph    
Max Gust Speed 24 mph    
Visibility 10 miles    
Events      
Averages and records for this station are not official NWS values.
T = Trace of Precipitation, MM = Missing Value Source: NWS Daily Summary

Daily Weather History Graph

Daily Weather History Graph

Search for Another Location

Airport:

Trip Planner

Search our weather history database for the weather conditions in past years. The results will help you decide how hot, cold, wet, or windy it might be!

Date:

Astronomy

Jun. 15, 2012 Rise Set
Actual Time 5:10 AM CDT 8:39 PM CDT
Civil Twilight 4:34 AM CDT 9:15 PM CDT
Nautical Twilight 3:46 AM CDT 10:02 PM CDT
Astronomical Twilight 2:46 AM CDT 11:03 PM CDT
Moon 2:29 AM CDT (6/15) 5:14 PM CDT (6/15)
Length of Visible Light 16h 40m
Length of Day
15h 28m
Waning Crescent, 13% of the Moon is Illuminated
Jun 15
Waning Crescent
Jun 19
New
Jun 26
First Quarter
Jul 3
Full
Jul 10
Last Quarter

Hourly Weather History & Observations

Time (CDT) Temp. Heat Index Dew Point Humidity Pressure Visibility Wind Dir Wind Speed Gust Speed Precip Events Conditions
12:53 AM 63.0 °F - 45.0 °F 52% 30.01 in 10.0 mi South 9.2 mph - N/A   Clear
1:53 AM 64.0 °F - 45.0 °F 50% 30.00 in 10.0 mi South 10.4 mph - N/A   Clear
2:53 AM 63.0 °F - 46.0 °F 54% 29.99 in 10.0 mi South 10.4 mph - N/A   Clear
3:53 AM 64.9 °F - 46.0 °F 50% 29.96 in 10.0 mi South 12.7 mph - N/A   Clear
4:53 AM 66.0 °F - 46.9 °F 50% 29.95 in 10.0 mi South 9.2 mph - N/A   Clear
5:53 AM 66.9 °F - 48.9 °F 52% 29.95 in 10.0 mi South 15.0 mph - N/A   Clear
6:53 AM 69.1 °F - 51.1 °F 53% 30.00 in 10.0 mi Calm Calm - N/A   Clear
7:53 AM 72.0 °F - 52.0 °F 49% 30.01 in 10.0 mi Calm Calm - N/A   Clear
8:53 AM 77.0 °F - 53.1 °F 43% 30.01 in 10.0 mi SSE 5.8 mph - N/A   Clear
9:53 AM 81.0 °F 80.5 °F 54.0 °F 39% 30.01 in 10.0 mi SSW 12.7 mph 21.9 mph N/A   Clear
10:53 AM 84.9 °F 83.6 °F 55.0 °F 36% 30.01 in 10.0 mi SW 13.8 mph 20.7 mph N/A   Clear
11:53 AM 88.0 °F 85.9 °F 54.0 °F 31% 30.01 in 10.0 mi SSW 11.5 mph 17.3 mph N/A   Clear
12:53 PM 88.0 °F - 51.1 °F 28% 30.00 in 10.0 mi SSW 11.5 mph 20.7 mph N/A   Clear
1:53 PM 90.0 °F 87.5 °F 53.1 °F 28% 29.98 in 10.0 mi South 17.3 mph 21.9 mph N/A   Clear
2:53 PM 91.9 °F 90.0 °F 55.0 °F 29% 29.98 in 10.0 mi South 18.4 mph 24.2 mph N/A   Clear
3:53 PM 91.0 °F 88.5 °F 53.1 °F 27% 29.97 in 10.0 mi South 12.7 mph 23.0 mph N/A   Clear
4:53 PM 90.0 °F - 50.0 °F 25% 29.97 in 10.0 mi SSW 13.8 mph 19.6 mph N/A   Clear
5:53 PM 90.0 °F 87.5 °F 53.1 °F 28% 29.96 in 10.0 mi SE 10.4 mph 20.7 mph N/A   Clear
6:53 PM 82.9 °F 82.4 °F 57.0 °F 41% 29.96 in 10.0 mi SE 11.5 mph - N/A   Clear
7:53 PM 81.0 °F 80.7 °F 55.0 °F 41% 29.97 in 10.0 mi SSE 8.1 mph - N/A   Clear
8:53 PM 79.0 °F - 53.1 °F 40% 29.97 in 10.0 mi South 9.2 mph - N/A   Clear
9:53 PM 75.9 °F - 53.1 °F 45% 29.98 in 10.0 mi SSE 5.8 mph - N/A   Clear
10:53 PM 72.0 °F - 52.0 °F 49% 29.99 in 10.0 mi Calm Calm - N/A   Clear
11:53 PM 64.9 °F - 53.1 °F 65% 29.99 in 10.0 mi South 3.5 mph - N/A   Clear